TimeHST,TemperatureF,Dew PointF,Humidity,Sea Level PressureIn,VisibilityMPH,Wind Direction,Wind SpeedMPH,Gust SpeedMPH,PrecipitationIn,Events,Conditions,WindDirDegrees,DateUTC
12:56 AM,72.0,66.9,84,29.96,10.0,ENE,3.5,-,N/A,,Clear,60,2013-12-04 10:56:00
1:56 AM,72.0,66.9,84,29.95,10.0,Calm,Calm,-,N/A,,Clear,0,2013-12-04 11:56:00
2:56 AM,70.0,66.0,87,29.93,10.0,Calm,Calm,-,N/A,,Clear,0,2013-12-04 12:56:00
3:56 AM,69.1,66.0,90,29.93,10.0,Calm,Calm,-,N/A,,Clear,0,2013-12-04 13:56:00
4:56 AM,69.1,64.9,87,29.93,10.0,East,3.5,-,N/A,,Clear,80,2013-12-04 14:56:00
5:56 AM,70.0,64.0,81,29.94,10.0,East,5.8,-,N/A,,Clear,80,2013-12-04 15:56:00
6:56 AM,70.0,64.9,84,29.96,10.0,East,3.5,-,N/A,,Clear,100,2013-12-04 16:56:00
7:56 AM,72.0,64.9,78,29.99,10.0,Calm,Calm,-,N/A,,Clear,0,2013-12-04 17:56:00
8:56 AM,77.0,66.9,71,29.99,10.0,NNE,3.5,-,N/A,,Mostly Cloudy,20,2013-12-04 18:56:00
9:56 AM,79.0,68.0,69,29.99,10.0,Variable,3.5,-,N/A,,Clear,0,2013-12-04 19:56:00
10:56 AM,81.0,69.1,67,29.98,10.0,South,6.9,-,N/A,,Clear,170,2013-12-04 20:56:00
11:56 AM,80.1,70.0,71,29.96,10.0,South,12.7,-,N/A,,Partly Cloudy,180,2013-12-04 21:56:00
12:41 PM,80.6,69.8,70,29.94,10.0,Variable,5.8,-,N/A,,Mostly Cloudy,0,2013-12-04 22:41:00
12:56 PM,79.0,70.0,74,29.93,10.0,Variable,6.9,-,N/A,,Overcast,0,2013-12-04 22:56:00
1:56 PM,80.1,68.0,67,29.91,10.0,South,8.1,-,0.00,,Mostly Cloudy,180,2013-12-04 23:56:00
2:06 PM,80.6,68.0,65,29.90,10.0,South,9.2,-,N/A,,Mostly Cloudy,180,2013-12-05 00:06:00
2:56 PM,80.1,68.0,67,29.90,10.0,South,6.9,-,N/A,,Mostly Cloudy,180,2013-12-05 00:56:00
3:07 PM,78.8,66.2,65,29.90,10.0,South,8.1,-,N/A,,Mostly Cloudy,190,2013-12-05 01:07:00
3:22 PM,80.6,68.0,65,29.90,10.0,South,5.8,-,N/A,,Overcast,190,2013-12-05 01:22:00
3:56 PM,80.1,69.1,69,29.92,10.0,SSW,6.9,-,N/A,,Overcast,210,2013-12-05 01:56:00
4:09 PM,78.8,69.8,74,29.91,10.0,West,4.6,-,N/A,,Overcast,270,2013-12-05 02:09:00
4:35 PM,78.8,68.0,69,29.93,10.0,Variable,3.5,-,0.00,,Overcast,0,2013-12-05 02:35:00
4:56 PM,79.0,68.0,69,29.94,10.0,North,5.8,-,0.00,,Scattered Clouds,10,2013-12-05 02:56:00
5:56 PM,78.1,66.9,68,29.94,10.0,Calm,Calm,-,N/A,,Clear,0,2013-12-05 03:56:00
6:56 PM,77.0,68.0,74,29.96,10.0,Calm,Calm,-,N/A,,Mostly Cloudy,0,2013-12-05 04:56:00
7:56 PM,73.0,68.0,84,29.98,10.0,Calm,Calm,-,N/A,,Clear,0,2013-12-05 05:56:00
8:56 PM,72.0,66.9,84,29.99,10.0,ENE,3.5,-,N/A,,Clear,70,2013-12-05 06:56:00
9:56 PM,72.0,66.0,81,29.98,10.0,ESE,4.6,-,N/A,,Clear,120,2013-12-05 07:56:00
10:56 PM,71.1,66.0,84,29.99,10.0,East,3.5,-,N/A,,Clear,80,2013-12-05 08:56:00
11:56 PM,71.1,64.9,81,29.97,10.0,East,5.8,-,N/A,,Clear,80,2013-12-05 09:56:00